• Processing (Info)

  • MPEC 2014-N10 : 2014 MT41

    The following Minor Planet Electronic Circular may be linked-to from your own Web pages, but must not otherwise be redistributed electronically.

    A form allowing access to any MPEC is at the bottom of this page.


    Read MPEC 2014-N09 Read MPEC 2014-N11


    M.P.E.C. 2014-N10                                Issued 2014 July 2, 01:05 UT
    
         The Minor Planet Electronic Circulars contain information on unusual
             minor planets and routine data on comets.  They are published
       on behalf of Commission 20 of the International Astronomical Union by the
              Minor Planet Center, Smithsonian Astrophysical Observatory,
                              Cambridge, MA 02138, U.S.A.
    
                 Prepared using the Tamkin Foundation Computer Network
    
                                  MPC@CFA.HARVARD.EDU
                URL https://www.minorplanetcenter.net/    ISSN 1523-6714
    
                                       2014 MT41
    
    Observations:
         K14M41T* C2014 06 29.48386 21 35 15.007-08 19 55.90         21.0 wLEN010F51
         K14M41T  C2014 06 29.49618 21 35 17.581-08 18 29.99         21.1 wLEN010F51
         K14M41T  C2014 06 29.50844 21 35 20.051-08 17 04.77         20.8 wLEN010F51
         K14M41T  C2014 06 29.52073 21 35 22.509-08 15 39.09         21.1 wLEN010F51
         K14M41T KC2014 06 30.40977 21 39 20.00 -06 42 14.5          20.3 RoEN010291
         K14M41T KC2014 06 30.41289 21 39 20.46 -06 41 56.5          20.2 RoEN010291
         K14M41T _C2014 06 30.47606321 39 41.060-06 35 10.10         20.4 RtEN010568
         K14M41T _C2014 06 30.47778721 39 41.326-06 35 00.46         20.4 RtEN010568
         K14M41T _C2014 06 30.47903921 39 41.522-06 34 53.45         20.4 RtEN010568
         K14M41T  C2014 07 01.56059 21 43 21.627-05 03 28.01         21.7 wLEN010F51
         K14M41T  C2014 07 01.57272 21 43 22.846-05 02 32.92         21.6 wLEN010F51
         K14M41T  C2014 07 01.58483 21 43 24.068-05 01 37.80         21.8 wLEN010F51
         K14M41T  C2014 07 01.59696 21 43 25.298-05 00 42.70         21.8 wLEN010F51
    
    Observer details:
    291 LPL/Spacewatch II.  Observer R. S. McMillan.  1.8-m f/2.7 reflector + CCD.
    568 Mauna Kea.  Observers R. J. Wainscoat, D. Woodworth.  Measurers M. Micheli,
        R. J. Wainscoat.  3.6-m Canada-France-Hawaii Telescope + CCD.
    F51 Pan-STARRS 1, Haleakala.  Observers N. Primak, A. Schultz, T. Goggia,
        M. Willman.  1.8-m Ritchey-Chretien + CCD.
    
    Orbital elements:
    2014 MT41                                                Earth MOID = 0.0109 AU
    Epoch 2014 May 23.0 TT = JDT 2456800.5                  MPC
    M 352.74299              (2000.0)            P               Q
    n   0.36860954     Peri.  342.54829     -0.20133938     +0.97780412
    a   1.9264526      Node   275.80675     -0.89159816     -0.20745562
    e   0.4710252      Incl.    3.34097     -0.40560471     -0.02934736
    P   2.67           H   26.5           G   0.15           U   4
    Residuals in seconds of arc
    140629 F51  0.2-  0.3-    140630 291  0.4-  0.1+    140701 F51  0.0   0.1-
    140629 F51  0.1+  0.0     140630 568  0.2+  0.1-    140701 F51  0.1-  0.0
    140629 F51  0.1-  0.0     140630 568  0.2+  0.1-    140701 F51  0.1-  0.1+
    140629 F51  0.1-  0.3+    140630 568  0.2+  0.1-
    140630 291  0.0   0.1-    140701 F51  0.1+  0.1-
    
    Ephemeris:
    2014 MT41                a,e,i = 1.93, 0.47, 3                   q = 1.0190
    Date    TT    R. A. (2000) Decl.     Delta      r     Elong.  Phase     V
    2014 06 02    10 40 44.1 -15 03 24   0.07786 1.0253    96.1    79.6    23.8
    ...
    2014 06 17    11 41 29.7 -33 18 14   0.02196 1.0209   102.8    76.0    20.9
    ...
    2014 06 25    20 45 49.0 -25 15 17   0.01732 1.0308   145.5    34.0    19.2
    ...
    2014 07 01    21 41 30.3 -05 46 47   0.03878 1.0434   132.7    45.7    21.3
    2014 07 02    21 44 39.1 -04 30 09   0.04263 1.0459   132.4    45.9    21.5
    2014 07 03    21 47 11.6 -03 26 49   0.04650 1.0485   132.3    45.8    21.7
    ...
    2014 07 09    21 55 13.6 +00 13 52   0.07017 1.0667   134.2    43.1    22.5
    ...
    2014 07 17    21 57 15.5 +01 59 08   0.1025  1.0969   140.0    36.5    23.2
    ...
    2014 08 01    21 51 35.9 +01 54 01   0.1679  1.1682   153.9    22.5    24.0
    
    A. U. Tomatic                (C) Copyright 2014 MPC           M.P.E.C. 2014-N10
    

    Read MPEC 2014-N09 Read MPEC 2014-N11


    MPEC number:

    Enter an MPEC number in one of the following forms:

    • 1997-B01 (the full form)
    • J97B01 (the packed version of the full form)
    • B01 (the abbreviated form)